VLG1468 LFPO-LEXJ

Flight info

Callsign VLG1468
Flight time 1h 19m
Altitude 37000
Route OLZOM DCT ETPIL DCT GALOF DCT NENEM DCT XORNA
Aircraft A320/M-SDE3FGHIRWY/LB1

Departure

Time 2026-05-05 18:54
Airport Paris-Orly Airport (LFPO)

Arrival

Time 2026-05-05 20:14
Airport Seve Ballesteros-Santander Airport (LEXJ)
Time Latitude Longitude Altitude Speed Heading
2026-05-05 18:34 48.72763 2.35373 299 ft 0 kts 293°
2026-05-05 18:47 48.72761 2.35382 299 ft 4 kts 291°
2026-05-05 18:47 48.72754 2.35420 298 ft 4 kts 267°
2026-05-05 18:47 48.72761 2.35455 298 ft 4 kts 217°
2026-05-05 18:47 48.72781 2.35462 299 ft 3 kts 164°
2026-05-05 18:48 48.72799 2.35454 299 ft 0 kts 164°
2026-05-05 18:50 48.72799 2.35455 299 ft 0 kts 164°
2026-05-05 18:50 48.72792 2.35457 299 ft 2 kts 165°
2026-05-05 18:50 48.72771 2.35466 300 ft 4 kts 164°
2026-05-05 18:51 48.72734 2.35482 296 ft 7 kts 164°
2026-05-05 18:51 48.72682 2.35504 295 ft 9 kts 164°
2026-05-05 18:51 48.72615 2.35533 298 ft 12 kts 164°
2026-05-05 18:51 48.72518 2.35574 295 ft 17 kts 165°
2026-05-05 18:52 48.72402 2.35622 295 ft 17 kts 164°
2026-05-05 18:52 48.72294 2.35618 295 ft 15 kts 200°
2026-05-05 18:52 48.72196 2.35611 297 ft 14 kts 166°
2026-05-05 18:52 48.72100 2.35652 295 ft 17 kts 159°
2026-05-05 18:53 48.72014 2.35785 298 ft 18 kts 121°
2026-05-05 18:53 48.71964 2.35951 297 ft 17 kts 96°
2026-05-05 18:53 48.72016 2.36256 300 ft 57 kts 75°
2026-05-05 18:53 48.72176 2.37131 295 ft 113 kts 74°
2026-05-05 18:54 48.72434 2.38495 300 ft 155 kts 75°
2026-05-05 18:54 48.72709 2.40140 754 ft 160 kts 73°
2026-05-05 18:54 48.73005 2.41762 1449 ft 160 kts 70°
2026-05-05 18:54 48.73319 2.43427 1909 ft 174 kts 70°
2026-05-05 18:55 48.73676 2.45303 2191 ft 198 kts 70°
2026-05-05 18:55 48.74029 2.47452 2537 ft 225 kts 81°
2026-05-05 18:55 48.74107 2.49953 2988 ft 248 kts 84°
2026-05-05 18:55 48.74196 2.52614 3756 ft 257 kts 84°
2026-05-05 18:56 48.74284 2.55347 4597 ft 266 kts 88°
2026-05-05 18:56 48.73800 2.58057 5433 ft 274 kts 122°
2026-05-05 18:56 48.72364 2.59958 6279 ft 282 kts 155°
2026-05-05 18:56 48.70432 2.60386 7070 ft 287 kts 189°
2026-05-05 18:57 48.68635 2.59167 7882 ft 289 kts 222°
2026-05-05 18:57 48.67518 2.56659 8649 ft 290 kts 255°
2026-05-05 18:57 48.67221 2.53637 9454 ft 293 kts 268°
2026-05-05 18:57 48.67059 2.50536 10142 ft 301 kts 267°
2026-05-05 18:58 48.66896 2.47369 10911 ft 301 kts 266°
2026-05-05 18:58 48.66733 2.44209 11704 ft 302 kts 265°
2026-05-05 18:58 48.66485 2.41039 12459 ft 305 kts 258°
2026-05-05 18:58 48.65910 2.37935 12762 ft 308 kts 248°
2026-05-05 18:59 48.65089 2.34932 13293 ft 310 kts 246°
2026-05-05 18:59 48.64262 2.31921 14018 ft 311 kts 247°
2026-05-05 18:59 48.63534 2.28835 14688 ft 313 kts 255°
2026-05-05 18:59 48.63150 2.25587 15353 ft 316 kts 265°
2026-05-05 19:00 48.63135 2.22260 16013 ft 318 kts 274°
2026-05-05 19:00 48.63445 2.18948 16670 ft 320 kts 278°
2026-05-05 19:00 48.63795 2.15601 17320 ft 323 kts 278°
2026-05-05 19:00 48.64141 2.12206 17936 ft 327 kts 278°
2026-05-05 19:01 48.64482 2.08813 18508 ft 330 kts 278°
2026-05-05 19:01 48.64823 2.05373 19120 ft 328 kts 278°
2026-05-05 19:01 48.65151 2.02070 20227 ft 311 kts 278°
2026-05-05 19:01 48.65471 1.98862 20909 ft 311 kts 279°
2026-05-05 19:02 48.65800 1.95545 21105 ft 324 kts 279°
2026-05-05 19:02 48.66138 1.92140 21480 ft 332 kts 279°
2026-05-05 19:02 48.66488 1.88612 21614 ft 346 kts 279°
2026-05-05 19:02 48.66851 1.84935 21751 ft 360 kts 279°
2026-05-05 19:03 48.67229 1.81119 21886 ft 373 kts 279°
2026-05-05 19:03 48.67620 1.77170 22015 ft 386 kts 279°
2026-05-05 19:03 48.68020 1.73089 22160 ft 398 kts 279°
2026-05-05 19:03 48.68428 1.68887 22332 ft 409 kts 278°
2026-05-05 19:04 48.68841 1.64592 22675 ft 415 kts 278°
2026-05-05 19:04 48.69257 1.60254 23096 ft 419 kts 278°
2026-05-05 19:04 48.69675 1.55881 23543 ft 421 kts 279°
2026-05-05 19:04 48.70097 1.51465 23868 ft 426 kts 279°
2026-05-05 19:05 48.70522 1.47023 24251 ft 428 kts 279°
2026-05-05 19:05 48.70948 1.42560 24608 ft 430 kts 278°
2026-05-05 19:05 48.71371 1.38118 25006 ft 433 kts 278°
2026-05-05 19:05 48.71805 1.33529 25343 ft 436 kts 278°
2026-05-05 19:06 48.72232 1.28972 25686 ft 439 kts 278°
2026-05-05 19:06 48.72659 1.24390 26032 ft 441 kts 278°
2026-05-05 19:06 48.73082 1.19826 26375 ft 444 kts 278°
2026-05-05 19:06 48.73372 1.16689 26606 ft 446 kts 278°
2026-05-05 19:07 48.73803 1.12019 26948 ft 449 kts 278°
2026-05-05 19:07 48.74234 1.07318 27294 ft 452 kts 278°
2026-05-05 19:07 48.74801 1.01090 28088 ft 447 kts 278°
2026-05-05 19:07 48.75085 0.97965 28647 ft 441 kts 278°
2026-05-05 19:08 48.75497 0.93412 29515 ft 431 kts 279°
2026-05-05 19:08 48.75899 0.88969 30315 ft 421 kts 278°
2026-05-05 19:08 48.76291 0.84613 31061 ft 412 kts 278°
2026-05-05 19:08 48.76674 0.80325 31493 ft 413 kts 278°
2026-05-05 19:09 48.77058 0.75974 31624 ft 420 kts 277°
2026-05-05 19:09 48.77447 0.71541 31756 ft 427 kts 277°
2026-05-05 19:09 48.77840 0.67044 31894 ft 434 kts 277°
2026-05-05 19:09 48.77988 0.62485 32018 ft 441 kts 266°
2026-05-05 19:10 48.77600 0.57865 32158 ft 446 kts 256°
2026-05-05 19:10 48.76669 0.53356 32294 ft 450 kts 245°
2026-05-05 19:10 48.75211 0.49145 32520 ft 452 kts 234°
2026-05-05 19:10 48.73289 0.45406 32877 ft 449 kts 224°
2026-05-05 19:11 48.71026 0.42185 33325 ft 446 kts 219°
2026-05-05 19:11 48.68719 0.39070 33825 ft 443 kts 219°
2026-05-05 19:11 48.66425 0.35977 34246 ft 441 kts 219°
2026-05-05 19:11 48.64137 0.32902 34615 ft 440 kts 219°
2026-05-05 19:12 48.61852 0.29838 34940 ft 439 kts 219°
2026-05-05 19:12 48.59561 0.26774 35262 ft 439 kts 219°
2026-05-05 19:12 48.57282 0.23731 35583 ft 438 kts 219°
2026-05-05 19:12 48.55020 0.20711 35883 ft 437 kts 220°
2026-05-05 19:13 48.52750 0.17681 36198 ft 436 kts 220°
2026-05-05 19:13 48.50450 0.14612 36514 ft 436 kts 220°
2026-05-05 19:13 48.48181 0.11587 36801 ft 435 kts 219°
2026-05-05 19:13 48.45911 0.08565 36893 ft 438 kts 220°
2026-05-05 19:14 48.41341 0.02499 36904 ft 443 kts 220°
2026-05-05 19:14 48.36718 -0.03739 36901 ft 445 kts 225°
2026-05-05 19:15 48.32889 -0.11054 36907 ft 446 kts 231°
2026-05-05 19:15 48.29207 -0.18490 36907 ft 446 kts 231°
2026-05-05 19:16 48.25491 -0.25959 36905 ft 447 kts 232°
2026-05-05 19:16 48.21733 -0.33383 36914 ft 447 kts 232°
2026-05-05 19:17 48.17939 -0.40773 36916 ft 447 kts 231°
2026-05-05 19:17 48.14141 -0.48145 36921 ft 448 kts 230°
2026-05-05 19:18 48.10343 -0.55531 36928 ft 448 kts 231°
2026-05-05 19:18 48.06546 -0.62915 36933 ft 448 kts 231°
2026-05-05 19:19 48.02740 -0.70297 36948 ft 448 kts 231°
2026-05-05 19:19 47.98924 -0.77673 36944 ft 448 kts 231°
2026-05-05 19:20 47.95103 -0.85008 36930 ft 448 kts 231°
2026-05-05 19:20 47.91278 -0.92351 36924 ft 448 kts 231°
2026-05-05 19:21 47.87448 -0.99693 36912 ft 449 kts 231°
2026-05-05 19:21 47.83610 -1.07035 36913 ft 449 kts 230°
2026-05-05 19:22 47.79768 -1.14357 36914 ft 449 kts 231°
2026-05-05 19:22 47.75919 -1.21661 36920 ft 449 kts 230°
2026-05-05 19:23 47.72089 -1.28916 36915 ft 449 kts 230°
2026-05-05 19:23 47.68206 -1.36254 36918 ft 449 kts 231°
2026-05-05 19:24 47.64371 -1.43488 36919 ft 450 kts 230°
2026-05-05 19:24 47.60488 -1.50786 36916 ft 450 kts 230°
2026-05-05 19:25 47.56478 -1.57838 36932 ft 450 kts 227°
2026-05-05 19:25 47.52249 -1.64650 36915 ft 449 kts 226°
2026-05-05 19:26 47.48013 -1.71410 36922 ft 449 kts 227°
2026-05-05 19:26 47.43804 -1.78257 36918 ft 449 kts 227°
2026-05-05 19:27 47.39634 -1.85118 36924 ft 449 kts 227°
2026-05-05 19:27 47.35837 -1.90695 36931 ft 448 kts 218°
2026-05-05 19:28 47.31609 -1.94652 36929 ft 447 kts 204°
2026-05-05 19:28 47.27661 -1.96973 36923 ft 446 kts 200°
2026-05-05 19:29 47.21977 -2.00126 36926 ft 447 kts 200°
2026-05-05 19:29 47.16145 -2.03320 36931 ft 447 kts 200°
2026-05-05 19:30 47.10312 -2.06522 36922 ft 447 kts 200°
2026-05-05 19:30 47.04478 -2.09745 36918 ft 448 kts 201°
2026-05-05 19:31 46.98630 -2.12963 36925 ft 449 kts 200°
2026-05-05 19:31 46.92774 -2.16179 36931 ft 449 kts 201°
2026-05-05 19:32 46.86918 -2.19391 36933 ft 449 kts 201°
2026-05-05 19:32 46.81086 -2.22576 36933 ft 450 kts 200°
2026-05-05 19:33 46.75200 -2.25778 36936 ft 450 kts 200°
2026-05-05 19:33 46.69338 -2.28964 36938 ft 450 kts 200°
2026-05-05 19:34 46.63475 -2.32152 36940 ft 450 kts 200°
2026-05-05 19:35 46.54722 -2.36895 36936 ft 450 kts 200°
2026-05-05 19:35 46.48856 -2.40051 36939 ft 449 kts 200°
2026-05-05 19:36 46.43002 -2.43198 36939 ft 449 kts 200°
2026-05-05 19:36 46.37132 -2.46350 36935 ft 450 kts 200°
2026-05-05 19:37 46.31271 -2.49496 36934 ft 450 kts 200°
2026-05-05 19:37 46.25384 -2.52638 36936 ft 450 kts 201°
2026-05-05 19:38 46.19500 -2.55777 36943 ft 451 kts 200°
2026-05-05 19:38 46.13622 -2.58903 36946 ft 451 kts 201°
2026-05-05 19:39 46.07731 -2.62036 36949 ft 451 kts 201°
2026-05-05 19:39 46.01840 -2.65154 36950 ft 451 kts 201°
2026-05-05 19:40 45.95950 -2.68258 36959 ft 451 kts 200°
2026-05-05 19:40 45.90062 -2.71361 36957 ft 451 kts 201°
2026-05-05 19:41 45.84214 -2.74428 36961 ft 451 kts 200°
2026-05-05 19:41 45.78331 -2.77517 36957 ft 451 kts 201°
2026-05-05 19:42 45.72434 -2.80611 36957 ft 451 kts 201°
2026-05-05 19:42 45.66536 -2.83692 36959 ft 452 kts 201°
2026-05-05 19:43 45.60586 -2.86794 36964 ft 452 kts 200°
2026-05-05 19:43 45.54727 -2.89836 36967 ft 452 kts 201°
2026-05-05 19:44 45.48816 -2.92921 36968 ft 452 kts 201°
2026-05-05 19:44 45.42913 -2.95997 36982 ft 451 kts 202°
2026-05-05 19:45 45.37006 -2.99043 36978 ft 451 kts 202°
2026-05-05 19:45 45.31012 -3.01677 36973 ft 453 kts 190°
2026-05-05 19:46 45.24722 -3.02472 36970 ft 454 kts 185°
2026-05-05 19:46 45.18419 -3.03141 36992 ft 455 kts 186°
2026-05-05 19:47 45.12107 -3.03823 36978 ft 455 kts 185°
2026-05-05 19:47 45.05789 -3.04499 36982 ft 455 kts 187°
2026-05-05 19:48 44.99468 -3.05168 36990 ft 455 kts 185°
2026-05-05 19:48 44.93150 -3.05841 36988 ft 456 kts 185°
2026-05-05 19:49 44.86826 -3.06511 36983 ft 456 kts 186°
2026-05-05 19:49 44.80501 -3.07188 36996 ft 456 kts 186°
2026-05-05 19:50 44.74171 -3.07856 36997 ft 456 kts 186°
2026-05-05 19:50 44.67885 -3.08500 37000 ft 456 kts 185°
2026-05-05 19:51 44.61551 -3.09159 37004 ft 456 kts 186°
2026-05-05 19:51 44.55218 -3.09829 36997 ft 456 kts 186°
2026-05-05 19:52 44.48895 -3.10496 37002 ft 456 kts 187°
2026-05-05 19:52 44.42580 -3.11159 37006 ft 455 kts 186°
2026-05-05 19:53 44.36253 -3.11817 37001 ft 455 kts 186°
2026-05-05 19:53 44.31013 -3.12367 37022 ft 453 kts 186°
2026-05-05 19:54 44.24737 -3.13018 37029 ft 451 kts 186°
2026-05-05 19:54 44.18479 -3.13661 37027 ft 450 kts 186°
2026-05-05 19:54 44.15357 -3.13983 36828 ft 450 kts 186°
2026-05-05 19:55 44.12225 -3.14306 35502 ft 456 kts 186°
2026-05-05 19:55 44.09027 -3.14637 34095 ft 465 kts 186°
2026-05-05 19:55 44.05774 -3.14798 32584 ft 471 kts 179°
2026-05-05 19:55 44.02510 -3.14279 31099 ft 475 kts 169°
2026-05-05 19:56 43.99285 -3.13328 29782 ft 473 kts 168°
2026-05-05 19:56 43.96064 -3.12381 28366 ft 470 kts 169°
2026-05-05 19:56 43.92918 -3.11471 27789 ft 454 kts 169°
2026-05-05 19:56 43.89850 -3.10591 27194 ft 448 kts 169°
2026-05-05 19:57 43.86806 -3.09722 26609 ft 443 kts 169°
2026-05-05 19:57 43.83805 -3.08865 26026 ft 439 kts 169°
2026-05-05 19:57 43.80830 -3.08012 25450 ft 435 kts 169°
2026-05-05 19:57 43.77883 -3.07165 24881 ft 431 kts 170°
2026-05-05 19:58 43.74961 -3.06321 24330 ft 426 kts 169°
2026-05-05 19:58 43.72068 -3.05482 23795 ft 423 kts 169°
2026-05-05 19:58 43.69209 -3.04653 23238 ft 419 kts 170°
2026-05-05 19:58 43.66378 -3.03826 22690 ft 414 kts 169°
2026-05-05 19:59 43.63573 -3.02962 22155 ft 410 kts 169°
2026-05-05 19:59 43.60808 -3.02082 21644 ft 406 kts 168°
2026-05-05 19:59 43.58099 -3.01207 21483 ft 393 kts 168°
2026-05-05 19:59 43.55473 -3.00361 21348 ft 380 kts 169°
2026-05-05 20:00 43.52938 -2.99553 21216 ft 368 kts 169°
2026-05-05 20:00 43.50484 -2.98780 20943 ft 357 kts 169°
2026-05-05 20:00 43.48081 -2.98031 20250 ft 352 kts 169°
2026-05-05 20:00 43.45709 -2.97294 19544 ft 348 kts 169°
2026-05-05 20:01 43.43353 -2.96561 18865 ft 345 kts 169°
2026-05-05 20:01 43.40994 -2.95831 17657 ft 354 kts 169°
2026-05-05 20:01 43.38547 -2.95088 16309 ft 364 kts 172°
2026-05-05 20:01 43.36052 -2.95018 15332 ft 356 kts 192°
2026-05-05 20:02 43.33743 -2.96085 14447 ft 346 kts 212°
2026-05-05 20:02 43.31891 -2.98094 13576 ft 336 kts 231°
2026-05-05 20:02 43.30652 -3.00752 12632 ft 329 kts 249°
2026-05-05 20:02 43.30123 -3.03739 12000 ft 314 kts 268°
2026-05-05 20:03 43.30050 -3.06615 11827 ft 291 kts 269°
2026-05-05 20:03 43.29969 -3.09349 11369 ft 283 kts 269°
2026-05-05 20:03 43.29880 -3.12028 10808 ft 279 kts 269°
2026-05-05 20:03 43.29792 -3.14682 10237 ft 277 kts 269°
2026-05-05 20:04 43.29709 -3.17237 10041 ft 259 kts 269°
2026-05-05 20:04 43.29633 -3.19615 9911 ft 241 kts 270°
2026-05-05 20:04 43.29561 -3.21862 9632 ft 232 kts 270°
2026-05-05 20:04 43.29493 -3.24059 9195 ft 229 kts 270°
2026-05-05 20:05 43.29427 -3.26236 8738 ft 227 kts 270°
2026-05-05 20:05 43.29362 -3.28396 8373 ft 227 kts 270°
2026-05-05 20:05 43.29303 -3.30546 8132 ft 224 kts 274°
2026-05-05 20:05 43.29527 -3.32635 7850 ft 220 kts 289°
2026-05-05 20:06 43.30051 -3.34594 7570 ft 218 kts 292°
2026-05-05 20:06 43.30582 -3.36540 7296 ft 217 kts 292°
2026-05-05 20:06 43.31107 -3.38477 7017 ft 215 kts 292°
2026-05-05 20:06 43.31625 -3.40393 6591 ft 213 kts 292°
2026-05-05 20:07 43.32131 -3.42265 6186 ft 211 kts 292°
2026-05-05 20:07 43.32637 -3.44161 5684 ft 211 kts 291°
2026-05-05 20:07 43.33088 -3.46077 5141 ft 210 kts 289°
2026-05-05 20:07 43.33555 -3.47983 4714 ft 209 kts 290°
2026-05-05 20:08 43.34051 -3.49853 4287 ft 209 kts 291°
2026-05-05 20:08 43.34555 -3.51721 3982 ft 208 kts 291°
2026-05-05 20:08 43.35061 -3.53587 3692 ft 208 kts 291°
2026-05-05 20:08 43.35562 -3.55438 3404 ft 205 kts 291°
2026-05-05 20:09 43.36050 -3.57243 3139 ft 201 kts 291°
2026-05-05 20:09 43.36525 -3.59003 3031 ft 189 kts 290°
2026-05-05 20:09 43.36957 -3.60601 3010 ft 169 kts 291°
2026-05-05 20:09 43.37355 -3.62076 2858 ft 161 kts 291°
2026-05-05 20:10 43.37739 -3.63501 2678 ft 157 kts 290°
2026-05-05 20:10 43.38115 -3.64893 2474 ft 154 kts 290°
2026-05-05 20:10 43.38483 -3.66260 2277 ft 152 kts 290°
2026-05-05 20:10 43.38848 -3.67615 2066 ft 151 kts 290°
2026-05-05 20:11 43.39211 -3.68968 1870 ft 151 kts 290°
2026-05-05 20:11 43.39576 -3.70322 1668 ft 151 kts 290°
2026-05-05 20:11 43.39941 -3.71683 1465 ft 150 kts 289°
2026-05-05 20:11 43.40284 -3.72956 1252 ft 137 kts 290°
2026-05-05 20:12 43.40608 -3.74167 1060 ft 134 kts 290°
2026-05-05 20:12 43.40926 -3.75362 863 ft 133 kts 289°
2026-05-05 20:12 43.41250 -3.76547 686 ft 132 kts 289°
2026-05-05 20:12 43.41564 -3.77729 506 ft 131 kts 288°
2026-05-05 20:13 43.41883 -3.78909 349 ft 133 kts 289°
2026-05-05 20:13 43.42206 -3.80125 153 ft 137 kts 288°
2026-05-05 20:13 43.42534 -3.81324 29 ft 124 kts 287°
2026-05-05 20:13 43.42769 -3.82248 20 ft 77 kts 291°
2026-05-05 20:14 43.42898 -3.82719 20 ft 28 kts 289°
2026-05-05 20:14 43.42944 -3.82949 19 ft 18 kts 256°
2026-05-05 20:14 43.42857 -3.83043 19 ft 17 kts 170°
2026-05-05 20:14 43.42783 -3.82918 19 ft 19 kts 109°
2026-05-05 20:15 43.42731 -3.82733 20 ft 22 kts 110°
2026-05-05 20:15 43.42675 -3.82523 19 ft 25 kts 109°
2026-05-05 20:15 43.42620 -3.82316 19 ft 15 kts 120°
2026-05-05 20:15 43.42539 -3.82322 19 ft 14 kts 200°
2026-05-05 20:16 43.42453 -3.82355 19 ft 9 kts 166°
2026-05-05 20:16 43.42420 -3.82278 19 ft 9 kts 133°
2026-05-05 20:16 43.42389 -3.82285 19 ft 1 kts 238°
2026-05-05 20:16 43.42380 -3.82301 20 ft 1 kts 234°
2026-05-05 20:17 43.42380 -3.82302 20 ft 0 kts 234°